Regional Weather Roundup
Issued by NWS

Home | Current Version | Previous Version | Text Only | Print | Product List | Glossary On
Versions: 1 2 3 4 5 6 7 8 9 10 11 12 13 14 15 16 17 18 19 20 21 22 23 24 25 26 27 28 29 30 31 32 33 34 35 36 37 38 39 40 41 42 43 44 45 46 47 48 49 50
000
ASUS45 KBOI 031610
RWRID
WEATHER ROUNDUP FOR IDAHO
NATIONAL WEATHER SERVICE BOISE ID
1000 AM MDT SUN MAY 03 2015

NOTE: "FAIR" INDICATES FEW OR NO CLOUDS BELOW 12000 FEET
WITH NO SIGNIFICANT WEATHER AND/OR OBSTRUCTIONS TO VISIBILITY

IDZ012-014-031700-
SOUTHWEST IDAHO


CITY           SKY/WX    TMP DP  RH WIND       PRES   REMARKS
BOISE          MOSUNNY   58  34  40 W5        29.90R
CALDWELL       SUNNY     57  32  38 NW9       29.92R
MOUNTAIN HOME  PTSUNNY   61  30  31 NW9       29.89S
$$

IDZ016-017-031700-
SOUTHCENTRAL IDAHO


CITY           SKY/WX    TMP DP  RH WIND       PRES   REMARKS
BURLEY         SUNNY     61  33  35 SW6       29.92S
JEROME         MOSUNNY   57  30  35 S6        29.93R
TWIN FALLS     SUNNY     64  30  27 SW6       29.93S
$$

IDZ019>023-031700-
SOUTHEAST IDAHO


CITY           SKY/WX    TMP DP  RH WIND       PRES   REMARKS
IDAHO FALLS    PTSUNNY   61  36  39 SW7       29.96R
POCATELLO      PTSUNNY   62  38  40 N5        29.95R
REXBURG        MOSUNNY   59  36  42 CALM      29.95S
$$

IDZ006-010-011-018-031-032-031700-
CENTRAL IDAHO MOUNTAINS


CITY           SKY/WX    TMP DP  RH WIND       PRES   REMARKS
MCCALL         SUNNY     50  34  54 SE3       29.93S
HAILEY         PTSUNNY   57  34  41 N12       29.97S
STANLEY          N/A     48  25  40 N5        30.01F
SALMON         SUNNY     48  30  49 CALM      29.96F
CHALLIS        MOSUNNY   52  24  33 CALM      29.96F
$$

IDZ002-004-006-007-026-031700-
NORTHERN IDAHO


CITY           SKY/WX    TMP DP  RH WIND       PRES   REMARKS
LEWISTON       SUNNY     52  34  50 CALM      29.98F
LOWELL           N/A     48  35  60 N3        30.01F
COEUR D`ALENE  SUNNY     52  18  25 N16G23    30.03S
MULLAN PASS    SUNNY     44  18  35 VRB3      30.01R
$$


USA.gov is the U.S. government's official web portal to all federal, state and local government web resources and services.